Weather History for PHLI - May, 2013

Change the Weather History Date:

Friday, May 3, 2013

  Actual Average Record
Temperature  
Mean Temperature 74 °F 75 °F  
Max Temperature 79 °F 80 °F 86 °F (1978)
Min Temperature 69 °F 69 °F 62 °F (1996)
Degree Days  
Heating Degree Days 0 0  
Month to date heating degree days 0 0  
Since 1 July heating degree days 0 0  
Cooling Degree Days 9 10  
Month to date cooling degree days 29 30  
Year to date cooling degree days 791 934  
Growing Degree Days 24 (Base 50)    
Moisture  
Dew Point 67 °F    
Average Humidity 82    
Maximum Humidity 97    
Minimum Humidity 67    
Precipitation  
Precipitation 0.00 in 0.08 in 1.40 in (2010)
Month to date precipitation 0.00 0.24  
Year to date precipitation 14.22 14.01  
Snow  
Snow 0.00 in - - ()
Month to date snowfall 0.0  
Since 1 July snowfall 0.0  
Snow Depth 0.00 in    
Sea Level Pressure  
Sea Level Pressure 30.04 in    
Wind  
Wind Speed 6 mph (WSW)    
Max Wind Speed 12 mph    
Max Gust Speed 15 mph    
Visibility 10 miles    
Events      
T = Trace of Precipitation, MM = Missing Value Source: NWS Daily Summary

Daily Weather History Graph

Daily Weather History Graph

Search for Another Location

Airport or City:

Trip Planner

Search our weather history database for the weather conditions in past years. The results will help you decide how hot, cold, wet, or windy it might be!

Date:

Astronomy

May. 03, 2013 Rise Set
Actual Time 6:04 AM HST 7:04 PM HST
Civil Twilight 5:40 AM HST 7:28 PM HST
Nautical Twilight 5:12 AM HST 7:55 PM HST
Astronomical Twilight 4:44 AM HST 8:24 PM HST
Moon 1:51 AM HST (5/3) 1:52 PM HST (5/3)
Length of Visible Light 13h 47m
Length of Day
13h 00m
Waning Crescent, 34% of the Moon is Illuminated
May 3
Waning Crescent
May 9
New
May 17
First Quarter
May 24
Full
May 31
Last Quarter

Hourly Weather History & Observations

Time (HST) Temp. Dew Point Humidity Pressure Visibility Wind Dir Wind Speed Gust Speed Precip Events Conditions
12:53 AM 70.0 °F 68.0 °F 93% 30.07 in 10.0 mi West 8.1 mph - N/A   Clear
1:53 AM 70.0 °F 66.9 °F 90% 30.06 in 10.0 mi West 6.9 mph - N/A   Clear
2:53 AM 69.1 °F 66.9 °F 93% 30.04 in 10.0 mi West 5.8 mph - N/A   Clear
3:53 AM 70.0 °F 68.0 °F 93% 30.04 in 10.0 mi West 4.6 mph - N/A   Overcast
4:53 AM 70.0 °F 68.0 °F 93% 30.04 in 10.0 mi WSW 4.6 mph - N/A   Overcast
5:53 AM 71.1 °F 68.0 °F 90% 30.05 in 10.0 mi West 4.6 mph - N/A   Overcast
6:53 AM 72.0 °F 69.1 °F 91% 30.07 in 10.0 mi WNW 3.5 mph - N/A   Overcast
7:09 AM 73.4 °F 69.8 °F 88% 30.07 in 10.0 mi Calm Calm - N/A   Overcast
7:40 AM 73.4 °F 69.8 °F 88% 30.07 in 10.0 mi SE 3.5 mph - N/A   Overcast
7:53 AM 75.0 °F 68.0 °F 79% 30.07 in 10.0 mi ESE 9.2 mph - N/A   Overcast
8:53 AM 77.0 °F 69.1 °F 76% 30.09 in 10.0 mi East 9.2 mph - N/A   Scattered Clouds
9:53 AM 78.1 °F 69.1 °F 74% 30.09 in 10.0 mi East 8.1 mph - N/A   Partly Cloudy
10:53 AM 79.0 °F 69.1 °F 72% 30.07 in 10.0 mi East 8.1 mph - N/A   Clear
11:53 AM 79.0 °F 70.0 °F 74% 30.06 in 10.0 mi ESE 8.1 mph - N/A   Clear
12:53 PM 77.0 °F 69.1 °F 76% 30.06 in 10.0 mi ESE 4.6 mph - N/A   Overcast
1:53 PM 75.9 °F 68.0 °F 76% 30.04 in 10.0 mi East 3.5 mph - N/A   Overcast
2:53 PM 78.1 °F 66.9 °F 68% 30.01 in 10.0 mi WSW 5.8 mph - N/A   Overcast
3:53 PM 79.0 °F 66.0 °F 64% 30.00 in 10.0 mi WSW 6.9 mph - N/A   Overcast
4:53 PM 78.1 °F 64.0 °F 62% 29.99 in 10.0 mi Variable 4.6 mph - N/A   Overcast
5:53 PM 78.1 °F 62.1 °F 58% 29.99 in 10.0 mi WSW 4.6 mph - N/A   Overcast
6:53 PM 75.9 °F 63.0 °F 64% 30.01 in 10.0 mi NNW 3.5 mph - N/A   Partly Cloudy
7:53 PM 75.0 °F 63.0 °F 66% 30.02 in 10.0 mi WNW 4.6 mph - N/A   Overcast
8:53 PM 72.0 °F 64.9 °F 78% 30.03 in 10.0 mi WNW 3.5 mph - N/A   Clear
9:53 PM 71.1 °F 64.9 °F 81% 30.04 in 10.0 mi WSW 3.5 mph - N/A   Clear
10:53 PM 70.0 °F 64.9 °F 84% 30.04 in 10.0 mi West 5.8 mph - N/A   Clear
11:53 PM 70.0 °F 64.9 °F 84% 30.03 in 10.0 mi West 3.5 mph - N/A   Mostly Cloudy